{"data":{"norad_id":59443,"intl_designator":"2024-066B","name":"HAWK-8A","alt_names":[],"object_type":"PAYLOAD","status":"ACTIVE","operator":null,"country":"US","launch_date":"2024-04-07","launch_site_code":"AFETR","launch_vehicle":null,"mission":null,"orbit_class":"UNKNOWN","rcs_meters":null,"size_class":null,"mass_kg":null,"dimensions":null,"purposes":[],"wikipedia_slug":null,"has_3d_model":false,"image_url":null,"decayed_at":null,"tle_current":{"epoch":"2026-05-25T04:29:08.896128Z","epoch_age_seconds":54976,"freshness":"FRESH","line1":"1 59443U 24066B   26145.18690852  .00004256  00000+0  36450-3 0  9997","line2":"2 59443  45.5951  35.5420 0003919 289.2250  70.8207 14.99023053116384","mean_motion":14.99023053,"eccentricity":0.0003919,"inclination_deg":45.5951,"raan_deg":35.542,"arg_perigee_deg":289.225,"mean_anomaly_deg":70.8207,"bstar":0.0003645,"rev_number":11638,"period_min":96.062565356692,"perigee_km":567.19056649707,"apogee_km":572.63644848484,"semimajor_km":6948.050507491,"source":"CELESTRAK","updated_at":"2026-05-25T13:38:01.424151Z"}}}